Location: Chiroubles
(46.1812°N, 4.6660°E)
Time: 02:53:20
(UTC+00:00)

ALOS 2 - Pass Details

Date: 15 August 2020
Orbit: 630 x 632 km, 97.9° (Epoch: 27 September)

Event Time Altitude Azimuth Distance (km) Brightness Sun altitude
Exits shadow 23:17:13 40° 334° (NNW) 933 3.8 -29.8°
Drops below altitude 10° 23:20:07 10° 344° (NNW) 2,025 6.1 -29.9°
Sets 23:22:20 0° 346° (NNW) 2,937 7.2 -29.9°
